Tracking 19280 objects as of 15-Nov-2018
HD Live streaming from Space Station
objects crossing your sky now

TRANSIT 5E 3

Track TRANSIT 5E 3 now!
10-day predictions
TRANSIT 5E 3 is classified as:


NORAD ID: 705
Int'l Code: 1963-049C
Perigee: 1,064.9 km
Apogee: 1,113.6 km
Inclination: 89.9 °
Period: 106.9 minutes
Semi major axis: 7460 km
RCS: 1.4119 m2 (large)
Launch date: December 5, 1963
Source: United States (US)
Launch site: AIR FORCE WESTERN TEST RANGE (AFWTR)
aabbcc
Your satellite tracking list
Your tracking list is empty




NASA's NSSDC Master Catalog

Two Line Element Set (TLE):
1   705U 63049C   18317.94937446 +.00000024 +00000-0 +24038-4 0  9997
2   705 089.9067 096.0180 0032584 312.0433 172.8472 13.47326823698873
Source of the keplerian elements: AFSPC